User: anonymous   Login
Location: Unspecified
(0.0000°N, 0.0000°E)
Time: 15:14:34
(UTC+00:00)
Language:

FAISAT - Orbit

View from above orbital plane
View from above orbital plane
View from above satellite
View from above satellite

Ground track
Ground track

The orbit data is extracted from the following two-line orbital elements,

1 23465U 95002C   18052.17453440  .00000024  00000-0  10163-4 0  9991
2 23465  82.9259 106.9189 0036476 317.5269  95.1548 13.71880670155543
Epoch (UTC): 21 February 2018 04:11:19
Eccentricity: 0.0036476
inclination: 82.9259°
perigee height: 966 km
apogee height: 1020 km
right ascension of ascending node: 106.9189°
argument of perigee: 317.5269°
revolutions per day: 13.71880670
mean anomaly at epoch: 95.1548°
orbit number at epoch: 15554

The dashed part of the orbit path shows where the satellite is in the earth's shadow,  

DLR